Temp
64 63 63 62 62 62 63 62 62 61 61 60 60 59 56 55 52 50 48 50 51 53 57 55 55 59 59 60 61 61 59 57 55 57 56 56 56 54 54 56 56 55 57 59 61 61 62 62 62 62 62 62 61 61 61 61 61 61 61 62 62 63 62 61 60 59 59 59 59 59 59 59 59 60
64 63 62 62 61 62 62 62 62 61 61 61 60 59 59 57 53 52 50 51 54 52 54 57 56 56 57 59 60 59 56 52 52 53 55 55 55 54 53 52 54 56 58 59 59 60 61 61 62 62 62 61 61 61 61 61 61 61 62 62 62 61 60 59 59 58 57 58 58 58 59 59 59 59
63 62 61 62 61 62 62 62 62 61 60 60 60 59 58 57 56 55 54 51 54 58 54 54 55 56 55 57 56 56 57 54 52 53 53 54 52 49 50 51 53 56 58 58 57 59 60 60 61 60 60 61 60 60 60 60 60 60 61 61 60 59 58 57 56 56 56 57 57 57 57 58 58 58
63 62 61 61 61 62 62 61 61 61 60 60 59 58 58 57 58 57 55 53 53 57 57 56 56 55 56 55 56 54 54 54 48 53 52 52 48 51 51 52 52 52 53 52 51 53 53 55 57 57 58 58 58 58 58 58 59 59 59 57 56 56 55 55 55 56 56 56 56 56 56 56 56 57
63 62 62 61 62 62 61 60 60 60 60 58 58 58 58 57 57 57 55 53 53 55 57 56 56 54 56 55 54 54 52 52 52 51 51 51 53 51 53 52 50 50 51 52 53 53 51 52 53 54 55 55 55 56 56 56 56 55 54 54 54 54 54 55 55 55 55 55 55 55 55 55 55 55
62 62 61 61 61 61 61 60 59 59 59 58 58 57 57 57 57 58 56 55 54 52 55 55 56 57 55 55 52 54 52 52 50 51 49 51 51 51 49 48 49 50 50 52 52 52 52 52 52 52 51 52 52 52 53 52 52 52 52 52 52 52 53 53 53 53 53 53 53 53 53 54 54 54
61 60 60 60 61 61 59 59 58 58 58 58 57 57 57 57 57 57 57 56 53 52 51 54 54 54 54 54 53 51 51 50 50 50 48 50 49 49 48 50 49 50 50 51 51 52 52 52 52 51 51 51 51 51 51 51 51 51 51 51 51 51 51 51 51 52 52 52 52 52 52 53 53 54
60 60 59 59 59 59 58 58 57 57 58 57 57 56 56 56 56 56 56 57 55 52 51 51 53 53 52 52 50 52 51 50 47 47 47 46 45 45 48 47 48 49 50 50 49 50 50 51 51 51 51 51 51 51 51 50 50 50 50 50 49 49 49 50 50 50 50 50 51 51 51 51 52 52
59 59 59 59 59 58 57 57 56 56 56 56 56 56 56 55 56 56 56 55 55 54 52 52 51 51 51 51 49 51 51 48 45 42 43 44 44 45 45 46 49 47 48 48 48 48 49 49 50 50 50 51 51 50 50 50 49 48 48 48 48 48 49 49 49 49 49 49 49 50 50 50 50 50
59 59 59 59 58 57 57 56 56 56 56 56 55 55 55 54 54 54 54 54 53 53 52 50 49 48 51 50 48 47 48 47 47 46 42 41 41 43 43 41 46 47 48 47 47 47 47 48 48 49 49 50 50 50 50 49 48 47 47 48 48 48 48 48 48 48 49 48 48 48 48 48 48 49
59 59 58 58 58 57 57 57 56 55 55 55 55 54 54 54 53 53 53 52 52 52 52 50 51 51 48 48 46 46 46 45 43 43 43 42 36 35 38 41 42 43 45 44 45 45 45 45 44 46 47 48 48 48 48 48 47 46 46 47 47 48 48 48 48 48 48 47 47 47 47 47 47 48
58 58 58 58 58 57 57 57 56 55 54 54 54 54 54 53 52 52 52 52 51 51 49 48 47 45 49 46 45 43 43 43 40 39 42 42 36 37 36 39 40 41 40 39 41 43 43 43 44 46 46 47 47 46 46 46 45 44 46 47 47 47 47 48 47 47 47 46 46 47 47 47 46 47
57 57 57 57 57 54 49 48 49 50 50 54 53 52 52 52 52 51 51 50 50 49 49 47 47 47 45 47 46 42 39 38 42 36 34 34 35 36 38 38 38 39 38 37 36 37 38 39 40 40 40 42 43 43 44 44 44 45 47 48 48 48 48 47 47 46 46 46 46 46 46 46 46 46
55 56 56 55 47 46 45 45 45 46 46 48 53 54 52 51 51 50 49 49 49 49 47 47 46 45 46 46 45 44 41 39 35 36 36 36 34 37 37 37 33 33 33 35 36 36 37 36 38 38 38 40 41 41 42 43 45 46 48 48 48 47 47 47 46 46 46 46 46 46 46 46 45 46
52 52 53 53 47 45 43 45 44 45 46 45 46 47 47 48 53 51 50 49 48 47 47 46 46 46 47 46 44 44 43 37 39 35 33 37 37 36 34 34 35 36 35 34 32 37 37 35 36 37 37 38 39 41 42 45 46 46 48 48 48 47 47 47 46 46 45 45 45 45 45 45 45 45
52 51 50 48 48 49 50 50 47 45 43 44 44 45 44 44 46 48 50 48 46 47 46 45 46 46 46 45 43 40 39 36 33 35 36 37 36 35 35 34 33 33 34 34 34 35 37 35 35 35 38 38 39 42 44 46 47 48 48 48 48 47 46 46 46 45 45 45 45 45 45 45 45 45
51 49 48 46 44 47 41 44 46 45 43 40 42 42 41 42 43 43 43 45 50 49 48 47 45 46 44 43 42 38 37 35 36 36 37 37 36 36 35 34 34 35 36 35 34 33 36 34 35 36 38 37 38 41 43 46 47 48 48 48 47 47 46 45 45 45 45 45 45 45 45 45 44 44
50 49 48 46 44 43 42 43 44 44 42 41 41 41 41 41 39 39 40 39 39 44 49 47 46 44 44 43 39 36 37 38 38 38 36 37 35 35 35 35 35 37 37 35 33 32 35 34 34 35 37 37 38 38 42 45 47 48 48 48 48 47 45 45 45 45 45 45 45 45 45 45 44 44
50 49 48 47 46 43 42 43 43 43 42 41 41 40 40 41 40 40 40 40 41 41 44 46 46 42 40 39 38 39 41 41 40 40 38 37 36 35 35 35 35 35 36 34 34 31 33 30 35 36 37 37 37 37 41 44 46 47 47 47 47 46 45 45 45 45 45 45 45 45 45 45 45 44
48 48 47 46 45 43 43 40 41 42 43 42 40 39 40 40 39 39 39 40 41 42 42 42 43 42 40 39 38 38 39 39 38 35 35 35 34 33 32 31 30 31 32 34 34 33 33 33 34 36 37 36 35 36 37 41 44 45 46 46 46 45 45 45 45 45 46 45 45 45 45 45 45 44
45 45 45 45 45 43 42 40 41 42 41 42 40 39 39 39 38 37 38 39 39 40 40 40 40 40 41 41 41 41 41 38 37 35 34 33 33 32 30 29 30 31 32 32 35 35 35 34 32 35 36 35 36 35 35 34 39 43 45 45 45 45 45 45 46 46 46 45 45 45 45 45 45 43
43 42 39 40 44 43 42 40 41 42 41 41 40 39 37 36 35 35 37 38 38 37 38 38 38 38 39 40 40 41 40 40 37 35 33 32 32 31 31 30 30 30 32 32 34 32 32 32 34 33 35 34 30 30 30 32 36 39 39 42 44 44 44 45 46 45 45 45 45 44 45 45 44 39
39 39 37 37 40 42 40 40 41 41 40 41 39 39 38 36 35 36 36 36 35 35 35 35 35 35 35 35 36 36 38 38 36 36 35 34 33 31 32 32 32 30 31 33 36 34 32 33 33 33 32 31 30 33 29 32 36 35 36 37 37 40 42 43 43 44 44 45 45 44 45 45 44 37
36 36 36 37 39 40 39 40 41 41 40 39 38 38 37 35 34 36 35 35 35 34 34 34 34 34 35 34 34 33 34 35 34 35 36 35 34 33 32 32 32 30 32 34 35 33 32 33 32 34 32 29 28 28 33 35 33 35 35 35 32 36 38 39 40 42 44 44 44 44 44 44 44 38
37 35 35 35 37 39 39 39 40 39 39 38 37 37 36 36 36 36 34 34 34 34 34 33 34 34 34 33 33 33 33 33 34 34 34 34 34 33 32 32 32 32 33 34 37 34 32 33 32 33 31 31 31 30 33 33 33 31 32 31 31 32 35 35 36 34 38 41 42 43 43 44 44 41
36 36 35 34 36 38 38 38 39 39 39 39 36 37 38 38 38 35 34 34 34 33 33 33 33 32 32 31 30 31 31 32 32 33 33 33 34 35 35 34 32 31 33 34 38 34 32 31 32 31 31 30 30 32 31 32 32 31 30 33 36 34 32 34 33 33 33 33 33 36 39 43 43 43
36 35 34 34 34 36 37 38 38 39 39 36 36 39 38 38 37 35 33 33 33 33 32 31 31 31 31 30 30 31 31 32 32 32 33 33 34 34 35 35 36 34 34 34 35 35 33 32 33 32 31 32 30 31 31 29 30 31 34 32 32 32 34 32 31 32 32 31 32 38 40 41 42 43
33 33 33 33 34 35 36 37 37 37 36 35 38 39 38 36 35 33 33 32 32 32 31 30 29 30 31 31 31 31 32 32 32 32 33 33 32 32 31 31 32 31 33 33 33 34 34 33 33 33 33 31 30 29 28 32 33 33 32 35 34 33 31 32 33 30 30 30 32 32 32 32 33 36
33 33 34 34 35 35 35 36 37 36 36 37 37 36 35 33 33 32 32 32 32 31 31 30 31 31 32 32 32 32 32 32 32 32 32 32 31 31 31 31 31 32 33 33 33 33 32 32 32 33 33 32 31 31 31 30 31 32 33 32 32 30 34 33 28 31 34 34 33 32 32 33 35 36
34 35 34 34 34 34 35 34 33 33 34 34 34 34 33 33 32 32 32 32 31 30 31 31 32 32 32 32 33 33 33 32 31 31 30 30 30 30 29 29 30 30 32 33 32 32 31 31 31 31 31 32 32 31 32 31 31 32 31 32 32 34 30 29 34 34 34 34 33 32 33 33 34 34
33 33 33 33 34 33 33 33 33 32 32 32 32 32 32 32 32 33 32 32 32 32 32 32 32 32 32 33 32 32 31 30 30 31 31 29 29 30 29 28 28 28 30 30 31 32 31 31 31 31 30 30 31 31 31 31 31 31 32 32 32 29 33 35 34 34 34 34 34 33 33 32 31 32
32 32 32 32 32 33 32 32 31 31 31 31 31 31 32 32 32 32 32 32 32 32 32 32 33 32 32 31 30 30 30 29 30 30 30 29 29 29 29 28 26 27 29 32 33 33 32 32 32 32 31 31 30 32 32 32 32 32 32 33 33 34 34 34 34 34 33 33 32 32 32 31 32 32
32 32 32 31 31 30 30 31 31 31 31 31 32 32 32 32 32 32 32 31 31 32 32 31 31 31 31 30 30 30 29 30 30 30 29 29 28 29 29 29 30 31 31 32 32 33 33 32 32 32 32 32 32 32 31 30 32 32 32 33 33 33 33 34 33 34 34 32 31 32 33 34 32 31
31 31 30 30 29 29 30 30 30 30 30 30 30 31 32 32 31 31 32 32 32 32 32 31 31 30 30 29 30 31 32 32 32 32 32 32 32 31 31 30 30 31 30 29 29 31 31 32 32 33 33 33 33 33 33 32 31 32 32 32 32 32 33 33 34 34 34 33 33 32 32 33 32 28
31 30 30 30 29 29 30 30 30 31 31 30 30 30 32 31 32 32 32 31 32 32 31 31 30 31 30 30 31 30 31 31 31 32 32 31 30 28 27 25 25 25 25 25 27 31 32 33 32 32 32 32 31 31 34 34 32 32 33 33 33 33 34 35 34 35 34 34 33 31 32 33 33 32
30 30 29 29 29 29 29 30 31 31 31 31 31 30 30 30 30 29 29 31 31 30 29 29 29 29 29 28 29 28 28 28 26 25 25 25 24 24 23 23 24 25 27 28 29 30 30 28 28 25 23 24 24 25 25 34 34 33 32 32 35 34 35 34 34 34 34 33 33 31 29 29 31 33
29 30 30 30 30 30 29 30 30 30 30 29 29 29 28 26 27 27 28 29 28 28 27 27 26 26 26 26 25 25 25 24 23 25 25 25 24 23 23 24 26 27 26 25 25 25 24 22 23 22 22 22 22 22 24 27 30 34 31 29 29 31 31 31 31 31 33 33 32 32 30 30 31 33
29 29 29 29 28 28 28 27 26 25 25 26 26 26 26 26 26 26 27 26 26 25 25 24 24 25 24 24 22 21 21 21 22 22 22 21 21 23 23 22 22 22 20 20 20 20 21 22 24 25 24 21 20 20 20 24 24 27 33 28 25 26 28 27 26 27 29 31 31 32 33 32 33 33
28 27 26 24 24 24 23 24 24 23 23 23 23 23 23 24 24 24 24 23 23 22 22 22 23 23 22 21 21 20 18 18 18 19 20 20 20 19 17 16 15 16 16 17 19 20 20 19 20 20 20 19 18 19 20 18 19 23 26 31 27 25 26 27 27 29 30 30 32 34 34 35 30 30
23 23 23 22 21 21 20 21 21 21 20 21 21 21 21 21 21 21 20 21 20 21 21 22 22 21 21 20 19 18 18 19 18 17 17 16 16 16 15 16 16 17 16 15 15 14 13 15 16 15 18 19 20 21 21 21 22 24 24 27 32 30 28 28 26 26 26 29 30 30 30 31 30 24
20 18 18 19 19 18 18 18 18 19 18 18 18 19 19 19 18 18 19 19 20 19 19 18 19 19 18 18 18 17 16 16 14 14 15 14 15 16 17 17 14 15 14 14 15 16 15 14 19 23 22 20 21 21 19 16 15 18 20 23 29 31 31 31 27 25 25 27 27 27 26 26 27 28
16 15 15 15 15 15 15 15 16 16 15 16 16 16 17 18 18 19 18 18 18 18 17 17 17 17 17 16 16 16 14 13 12 13 15 14 12 13 15 15 14 16 15 14 15 15 16 17 19 19 18 19 19 17 14 16 16 18 21 22 23 28 30 30 30 30 27 26 25 23 24 25 27 25
14 13 13 13 14 14 14 14 14 14 14 15 15 15 15 15 15 15 15 15 15 15 15 15 15 14 14 14 14 14 12 11 12 11 11 12 12 12 13 14 15 15 15 14 15 16 16 17 18 18 18 18 18 18 14 16 17 18 19 19 20 22 23 27 28 29 30 31 32 30 29 27 24 21
12 12 11 12 12 12 12 12 12 13 13 13 13 14 13 13 13 13 13 13 13 13 14 14 14 13 12 13 12 11 10 10 11 10 11 12 13 13 13 14 14 14 14 14 14 15 16 17 17 18 16 15 17 16 15 16 16 17 17 18 20 20 20 22 24 27 30 31 32 32 31 31 30 30
10 10 10 11 11 11 11 11 11 11 12 12 12 12 12 12 12 12 12 12 12 13 12 12 12 11 11 12 10 8 9 12 11 11 12 12 12 13 13 13 13 13 13 13 13 13 15 15 16 17 16 16 17 16 17 17 16 17 17 17 17 19 20 21 20 20 22 23 28 31 31 30 30 30
MSLP
1007.78 1007.94 1008.02 1008.10 1008.22 1008.38 1008.50 1008.58 1008.70 1008.78 1008.94 1009.06 1009.26 1009.34 1009.54 1009.86 1010.22 1010.22 1010.10 1009.58 1009.54 1008.98 1008.90 1008.98 1008.34 1008.18 1008.22 1008.26 1008.22 1008.38 1008.54 1008.62 1008.74 1008.86 1008.94 1008.98 1009.02 1009.06 1009.14 1009.18 1009.22 1009.26 1009.26 1009.26 1009.18 1009.10 1009.02 1008.98 1008.98 1008.94 1008.90 1008.90 1008.86 1008.86 1008.82 1008.70 1008.62 1008.54 1008.46 1008.42 1008.30 1008.22 1008.14 1008.06 1008.06 1007.98 1007.90 1007.82 1007.78 1007.70 1007.58 1007.42 1007.26 1007.06
1007.26 1007.42 1007.62 1007.74 1007.86 1007.90 1008.14 1008.10 1008.18 1008.34 1008.42 1008.62 1008.70 1008.82 1008.94 1009.22 1009.54 1009.58 1009.66 1008.94 1008.74 1008.66 1008.42 1008.34 1008.22 1007.98 1008.06 1008.06 1008.22 1008.26 1008.34 1008.38 1008.54 1008.62 1008.70 1008.82 1008.86 1008.82 1008.90 1008.98 1009.02 1009.02 1008.98 1008.94 1008.90 1008.82 1008.78 1008.74 1008.74 1008.74 1008.70 1008.70 1008.70 1008.66 1008.58 1008.46 1008.38 1008.30 1008.22 1008.14 1008.06 1007.98 1007.98 1007.94 1007.94 1007.90 1007.86 1007.78 1007.66 1007.54 1007.38 1007.22 1007.02 1006.82
1006.78 1006.94 1007.14 1007.22 1007.34 1007.46 1007.58 1007.66 1007.78 1007.90 1008.02 1008.10 1008.22 1008.42 1008.62 1008.82 1008.94 1009.14 1009.22 1009.02 1008.10 1008.26 1008.42 1008.06 1007.86 1007.82 1007.82 1007.86 1007.98 1008.06 1008.10 1008.14 1008.26 1008.38 1008.46 1008.50 1008.58 1008.70 1008.74 1008.74 1008.74 1008.78 1008.74 1008.70 1008.66 1008.62 1008.58 1008.58 1008.58 1008.58 1008.58 1008.50 1008.50 1008.46 1008.34 1008.26 1008.22 1008.14 1008.10 1007.98 1007.90 1007.86 1007.82 1007.82 1007.82 1007.82 1007.70 1007.62 1007.54 1007.38 1007.22 1007.06 1006.86 1006.66
1006.18 1006.34 1006.50 1006.58 1006.70 1006.82 1007.06 1007.18 1007.26 1007.42 1007.54 1007.66 1007.86 1008.02 1008.22 1008.38 1008.54 1008.78 1008.82 1008.54 1008.18 1007.94 1007.86 1007.78 1007.66 1007.58 1007.62 1007.70 1007.82 1007.90 1007.94 1008.02 1008.10 1008.22 1008.34 1008.42 1008.50 1008.50 1008.50 1008.50 1008.50 1008.54 1008.58 1008.62 1008.62 1008.58 1008.54 1008.54 1008.54 1008.58 1008.54 1008.46 1008.42 1008.34 1008.26 1008.14 1008.06 1008.02 1007.94 1007.90 1007.78 1007.66 1007.62 1007.62 1007.62 1007.58 1007.50 1007.42 1007.34 1007.22 1007.06 1006.86 1006.70 1006.54
1005.58 1005.70 1005.78 1005.90 1006.02 1006.22 1006.46 1006.58 1006.78 1006.94 1007.06 1007.34 1007.50 1007.62 1007.82 1008.02 1008.22 1008.38 1008.30 1008.14 1007.94 1007.86 1007.58 1007.58 1007.54 1007.46 1007.46 1007.58 1007.54 1007.74 1007.86 1007.94 1007.94 1008.02 1008.14 1008.22 1008.26 1008.34 1008.34 1008.38 1008.46 1008.54 1008.54 1008.58 1008.54 1008.54 1008.50 1008.54 1008.54 1008.50 1008.46 1008.42 1008.34 1008.26 1008.14 1008.06 1008.02 1007.98 1007.94 1007.82 1007.62 1007.46 1007.38 1007.34 1007.34 1007.34 1007.30 1007.22 1007.18 1007.06 1006.90 1006.70 1006.50 1006.38
1004.98 1005.10 1005.26 1005.34 1005.50 1005.66 1005.86 1006.02 1006.26 1006.42 1006.62 1006.82 1007.06 1007.18 1007.30 1007.46 1007.62 1007.78 1007.98 1007.74 1007.78 1007.62 1007.54 1007.50 1007.38 1007.38 1007.34 1007.54 1007.42 1007.54 1007.70 1007.78 1007.90 1007.94 1008.02 1008.10 1008.14 1008.18 1008.30 1008.38 1008.46 1008.50 1008.50 1008.50 1008.46 1008.42 1008.38 1008.34 1008.34 1008.26 1008.22 1008.18 1008.14 1008.10 1008.06 1007.98 1007.98 1007.94 1007.82 1007.62 1007.38 1007.22 1007.18 1007.18 1007.18 1007.14 1007.10 1007.06 1006.98 1006.86 1006.70 1006.54 1006.38 1006.26
1004.46 1004.74 1004.78 1004.82 1005.02 1005.26 1005.46 1005.54 1005.70 1005.98 1006.18 1006.34 1006.50 1006.62 1006.82 1006.94 1007.02 1007.18 1007.34 1007.46 1007.38 1007.38 1007.42 1007.34 1007.30 1007.22 1007.22 1007.18 1007.22 1007.38 1007.54 1007.70 1007.82 1007.90 1007.98 1007.98 1008.02 1008.10 1008.18 1008.22 1008.26 1008.30 1008.34 1008.34 1008.30 1008.22 1008.10 1008.10 1008.02 1007.90 1007.78 1007.74 1007.70 1007.74 1007.70 1007.70 1007.70 1007.70 1007.54 1007.34 1007.22 1007.14 1007.10 1007.10 1007.10 1007.02 1006.98 1006.94 1006.86 1006.70 1006.54 1006.42 1006.30 1006.18
1004.02 1004.06 1004.30 1004.34 1004.58 1004.78 1005.02 1005.14 1005.34 1005.46 1005.66 1005.86 1006.02 1006.22 1006.38 1006.58 1006.66 1006.78 1006.94 1006.94 1006.98 1007.14 1007.34 1007.18 1007.14 1007.02 1007.06 1007.06 1007.18 1007.26 1007.38 1007.50 1007.66 1007.86 1007.94 1008.02 1008.02 1008.10 1008.14 1008.14 1008.10 1008.10 1008.18 1008.14 1008.10 1008.02 1007.94 1007.82 1007.70 1007.54 1007.42 1007.34 1007.38 1007.42 1007.50 1007.54 1007.58 1007.58 1007.46 1007.34 1007.18 1007.06 1006.98 1006.98 1006.94 1006.94 1006.90 1006.86 1006.74 1006.62 1006.46 1006.34 1006.22 1006.10
1003.46 1003.58 1003.70 1003.86 1004.22 1004.42 1004.58 1004.70 1004.90 1005.06 1005.26 1005.38 1005.58 1005.74 1005.94 1006.10 1006.22 1006.46 1006.58 1006.62 1006.70 1006.78 1006.86 1006.86 1006.86 1006.86 1006.90 1006.98 1007.06 1007.14 1007.26 1007.42 1007.62 1007.78 1007.90 1008.06 1008.14 1008.14 1008.18 1008.18 1008.10 1007.98 1007.98 1007.98 1007.98 1007.90 1007.82 1007.66 1007.54 1007.38 1007.26 1007.26 1007.30 1007.34 1007.42 1007.50 1007.62 1007.62 1007.46 1007.22 1007.06 1006.90 1006.86 1006.86 1006.86 1006.82 1006.82 1006.74 1006.62 1006.50 1006.34 1006.22 1006.10 1006.06
1002.94 1003.10 1003.22 1003.46 1003.70 1003.94 1004.06 1004.10 1004.34 1004.62 1004.82 1005.06 1005.26 1005.38 1005.54 1005.70 1005.90 1006.06 1006.18 1006.26 1006.34 1006.42 1006.42 1006.54 1006.74 1006.98 1006.94 1006.98 1007.06 1007.18 1007.34 1007.50 1007.58 1007.66 1007.86 1008.02 1008.10 1008.10 1008.14 1008.30 1008.26 1008.10 1008.06 1008.02 1008.02 1007.98 1007.86 1007.70 1007.50 1007.38 1007.30 1007.30 1007.34 1007.38 1007.42 1007.54 1007.62 1007.58 1007.34 1007.06 1006.90 1006.78 1006.74 1006.74 1006.74 1006.70 1006.66 1006.58 1006.46 1006.34 1006.22 1006.06 1005.94 1005.86
1002.46 1002.62 1002.78 1003.02 1003.22 1003.42 1003.50 1003.70 1003.90 1004.18 1004.42 1004.58 1004.70 1004.94 1005.18 1005.38 1005.62 1005.74 1005.78 1005.94 1006.10 1006.14 1006.14 1006.34 1006.38 1006.46 1006.82 1006.98 1006.94 1007.18 1007.30 1007.42 1007.74 1007.82 1008.02 1007.98 1008.26 1008.30 1008.38 1008.30 1008.26 1008.26 1008.10 1008.02 1008.10 1008.06 1007.94 1007.74 1007.62 1007.50 1007.38 1007.26 1007.30 1007.38 1007.46 1007.42 1007.42 1007.38 1007.14 1006.86 1006.70 1006.66 1006.62 1006.58 1006.58 1006.54 1006.46 1006.38 1006.26 1006.14 1005.94 1005.78 1005.70 1005.62
1002.06 1002.22 1002.38 1002.54 1002.74 1002.86 1003.02 1003.26 1003.46 1003.82 1004.06 1004.26 1004.38 1004.58 1004.86 1005.06 1005.26 1005.38 1005.50 1005.58 1005.62 1005.78 1006.06 1006.18 1006.34 1006.54 1006.62 1006.82 1007.02 1007.38 1007.50 1007.54 1007.86 1008.14 1008.18 1008.02 1008.18 1008.50 1008.54 1008.54 1008.50 1008.14 1008.38 1008.30 1008.06 1007.98 1007.86 1007.66 1007.50 1007.42 1007.34 1007.22 1007.26 1007.34 1007.38 1007.34 1007.22 1007.14 1006.94 1006.66 1006.54 1006.50 1006.42 1006.42 1006.34 1006.26 1006.18 1006.10 1006.02 1005.86 1005.70 1005.58 1005.50 1005.42
1001.74 1001.86 1001.98 1002.10 1002.26 1002.42 1002.58 1002.82 1003.02 1003.26 1003.50 1003.86 1004.06 1004.30 1004.58 1004.70 1004.82 1004.94 1005.18 1005.26 1005.38 1005.50 1005.78 1006.06 1006.14 1006.26 1006.46 1006.50 1006.74 1007.02 1007.18 1007.46 1007.54 1007.94 1008.30 1008.18 1008.58 1008.74 1008.70 1008.54 1008.58 1008.46 1008.22 1008.14 1008.10 1008.06 1008.06 1007.86 1007.54 1007.46 1007.34 1007.14 1007.18 1007.14 1007.18 1007.14 1007.02 1006.82 1006.62 1006.42 1006.30 1006.22 1006.18 1006.10 1006.02 1005.94 1005.86 1005.86 1005.78 1005.66 1005.50 1005.42 1005.38 1005.30
1001.42 1001.42 1001.54 1001.66 1001.86 1002.10 1002.34 1002.54 1002.74 1002.90 1003.06 1003.22 1003.38 1003.70 1004.14 1004.34 1004.54 1004.66 1004.82 1004.98 1005.02 1005.26 1005.54 1005.62 1005.82 1005.98 1006.26 1006.46 1006.62 1006.74 1007.02 1007.30 1007.78 1008.02 1008.10 1008.14 1008.42 1008.66 1008.70 1008.54 1008.42 1008.50 1008.34 1008.06 1007.74 1007.78 1008.06 1008.18 1008.02 1007.66 1007.46 1006.98 1007.02 1006.94 1006.90 1006.78 1006.62 1006.42 1006.18 1006.06 1005.98 1005.90 1005.86 1005.78 1005.74 1005.70 1005.70 1005.66 1005.58 1005.46 1005.38 1005.30 1005.26 1005.22
1001.06 1001.18 1001.26 1001.42 1001.58 1001.82 1002.02 1002.14 1002.30 1002.54 1002.74 1002.86 1003.02 1003.10 1003.18 1003.26 1003.46 1003.94 1004.34 1004.42 1004.70 1004.98 1005.02 1005.30 1005.54 1005.66 1005.90 1006.10 1006.34 1006.54 1006.78 1007.18 1007.34 1007.50 1007.90 1008.22 1008.66 1008.90 1008.90 1006.70 1008.10 1008.42 1008.30 1008.30 1008.34 1007.26 1007.38 1007.98 1008.10 1007.54 1007.22 1006.90 1006.78 1006.62 1006.50 1006.30 1006.10 1005.90 1005.74 1005.62 1005.54 1005.58 1005.58 1005.58 1005.58 1005.58 1005.54 1005.46 1005.34 1005.26 1005.18 1005.14 1005.14 1005.06
1000.74 1000.94 1001.06 1001.22 1001.38 1001.46 1001.58 1001.86 1002.10 1002.30 1002.42 1002.58 1002.70 1002.86 1003.02 1003.18 1003.26 1003.26 1003.42 1003.86 1004.46 1004.62 1004.74 1005.06 1005.14 1005.46 1005.58 1005.78 1006.14 1006.30 1006.70 1007.06 1007.50 1007.66 1007.90 1008.26 1008.54 1008.86 1009.14 1009.30 1008.30 1008.10 1008.26 1008.46 1008.46 1007.70 1007.02 1007.66 1007.82 1007.50 1006.82 1006.58 1006.42 1006.18 1005.98 1005.82 1005.58 1005.38 1005.22 1005.14 1005.14 1005.22 1005.30 1005.34 1005.38 1005.42 1005.34 1005.22 1005.10 1005.02 1004.98 1004.98 1004.98 1004.94
1000.34 1000.58 1000.82 1001.02 1001.26 1001.34 1001.42 1001.58 1001.82 1002.06 1002.34 1002.58 1002.70 1002.86 1003.02 1003.22 1003.34 1003.50 1003.62 1003.58 1003.50 1003.90 1004.18 1004.30 1004.86 1005.02 1005.38 1005.70 1005.74 1005.90 1006.18 1006.78 1007.06 1007.70 1007.90 1008.14 1008.38 1008.54 1008.70 1008.50 1008.34 1008.06 1008.18 1008.50 1008.42 1007.78 1006.82 1007.42 1007.42 1007.10 1006.38 1006.30 1006.14 1005.90 1005.66 1005.38 1005.18 1004.94 1004.78 1004.74 1004.78 1004.86 1004.98 1005.06 1005.18 1005.18 1005.14 1005.06 1004.98 1004.90 1004.86 1004.86 1004.86 1004.74
999.98 1000.18 1000.34 1000.62 1000.90 1001.22 1001.42 1001.54 1001.66 1001.94 1002.18 1002.54 1002.78 1002.94 1003.06 1003.18 1003.42 1003.54 1003.62 1003.66 1003.62 1003.58 1003.70 1004.06 1004.30 1004.78 1004.94 1005.22 1005.46 1005.98 1006.30 1006.50 1006.82 1007.34 1007.62 1007.94 1008.14 1008.18 1008.06 1007.98 1008.02 1008.02 1008.14 1008.42 1008.42 1007.70 1006.70 1006.82 1006.82 1006.46 1006.02 1006.14 1005.94 1005.74 1005.34 1004.98 1004.74 1004.58 1004.42 1004.42 1004.42 1004.54 1004.70 1004.82 1004.94 1004.98 1004.94 1004.94 1004.86 1004.78 1004.78 1004.78 1004.74 1004.58
999.50 999.66 999.86 1000.06 1000.26 1000.78 1001.06 1001.18 1001.30 1001.58 1001.94 1002.26 1002.54 1002.78 1002.94 1003.02 1003.22 1003.42 1003.58 1003.70 1003.66 1003.70 1003.74 1003.78 1004.02 1004.54 1004.86 1005.22 1005.66 1006.06 1006.26 1006.38 1006.78 1007.10 1007.42 1007.62 1007.90 1008.06 1008.22 1008.18 1008.06 1007.98 1007.66 1008.02 1008.14 1006.42 1006.70 1006.66 1006.50 1006.06 1005.98 1005.82 1005.70 1005.46 1004.94 1004.50 1004.34 1004.26 1004.18 1004.14 1004.22 1004.34 1004.50 1004.66 1004.78 1004.78 1004.78 1004.74 1004.70 1004.70 1004.66 1004.58 1004.50 1004.34
999.10 999.26 999.46 999.66 999.86 1000.22 1000.50 1000.70 1000.82 1000.94 1001.38 1001.82 1002.18 1002.46 1002.74 1003.02 1003.26 1003.42 1003.54 1003.62 1003.66 1003.74 1003.90 1003.98 1004.18 1004.54 1004.90 1005.30 1005.78 1006.14 1006.38 1006.70 1007.10 1007.46 1007.70 1007.90 1008.06 1008.18 1008.22 1008.06 1007.90 1007.78 1007.38 1007.66 1007.70 1007.58 1006.74 1006.70 1006.74 1005.94 1005.82 1005.66 1005.34 1004.98 1004.70 1004.26 1004.14 1004.10 1004.06 1004.06 1004.14 1004.26 1004.42 1004.58 1004.62 1004.62 1004.58 1004.58 1004.54 1004.54 1004.54 1004.42 1004.26 1004.06
998.86 999.02 999.10 999.26 999.54 999.94 1000.18 1000.42 1000.62 1000.78 1000.98 1001.38 1001.74 1002.10 1002.42 1002.78 1003.06 1003.34 1003.58 1003.66 1003.82 1003.98 1004.14 1004.30 1004.50 1004.74 1004.94 1005.30 1005.74 1006.10 1006.42 1006.74 1007.06 1007.42 1007.78 1007.86 1008.06 1008.06 1007.54 1007.30 1007.30 1007.06 1007.34 1007.38 1007.26 1007.42 1006.90 1006.78 1006.86 1006.06 1005.30 1005.30 1004.78 1004.54 1004.26 1004.26 1004.34 1004.06 1004.06 1004.02 1004.14 1004.30 1004.38 1004.42 1004.46 1004.46 1004.42 1004.42 1004.46 1004.46 1004.38 1004.22 1004.02 1003.78
998.66 998.70 998.82 998.98 999.22 999.54 999.82 1000.22 1000.42 1000.62 1000.78 1001.10 1001.46 1001.74 1002.14 1002.54 1002.78 1003.18 1003.50 1003.78 1004.10 1004.30 1004.46 1004.58 1004.78 1004.98 1005.22 1005.46 1005.78 1006.10 1006.38 1006.70 1006.98 1007.34 1007.42 1007.42 1007.70 1007.70 1007.42 1006.78 1007.30 1007.38 1007.34 1007.14 1007.22 1007.46 1006.94 1006.98 1006.94 1006.42 1004.98 1004.46 1004.26 1004.22 1004.34 1004.30 1004.26 1004.26 1004.34 1004.38 1004.42 1004.38 1004.38 1004.30 1004.30 1004.30 1004.34 1004.38 1004.38 1004.30 1004.18 1003.98 1003.78 1003.62
998.70 998.86 998.90 998.90 999.02 999.18 999.58 1000.02 1000.26 1000.50 1000.62 1000.82 1001.14 1001.38 1001.74 1002.10 1002.42 1002.90 1003.34 1003.78 1004.14 1004.42 1004.58 1004.82 1005.02 1005.34 1005.58 1005.82 1006.02 1006.18 1006.38 1006.58 1006.86 1007.06 1007.26 1007.42 1007.42 1007.38 1007.54 1007.54 1007.58 1006.66 1007.10 1007.26 1007.18 1007.38 1007.14 1007.22 1007.26 1007.26 1006.10 1004.22 1003.94 1003.98 1004.14 1004.30 1004.30 1004.34 1004.42 1004.50 1004.38 1004.34 1004.22 1004.30 1004.30 1004.34 1004.34 1004.30 1004.22 1004.14 1004.02 1003.86 1003.66 1003.50
998.98 999.10 999.14 999.14 999.14 999.30 999.62 999.90 1000.18 1000.46 1000.66 1000.82 1001.22 1001.50 1001.74 1002.02 1002.42 1002.98 1003.30 1003.62 1003.90 1004.14 1004.34 1004.58 1004.86 1005.14 1005.50 1005.78 1006.02 1006.26 1006.42 1006.54 1006.74 1006.94 1007.06 1007.22 1007.26 1007.38 1007.46 1007.42 1007.38 1006.86 1007.10 1007.26 1007.26 1007.54 1007.42 1007.46 1007.66 1007.62 1007.86 1007.70 1005.42 1004.18 1004.38 1004.22 1004.46 1004.46 1004.42 1004.34 1004.42 1004.34 1004.42 1004.38 1004.42 1004.42 1004.42 1004.34 1004.22 1004.10 1003.98 1003.82 1003.66 1003.46
998.78 999.10 999.34 999.46 999.42 999.46 999.74 1000.06 1000.34 1000.58 1000.78 1000.98 1001.26 1001.46 1001.62 1001.70 1002.02 1002.50 1002.90 1003.26 1003.66 1003.94 1004.10 1004.42 1004.86 1005.10 1005.46 1005.82 1006.10 1006.26 1006.34 1006.46 1006.58 1006.74 1006.90 1006.98 1007.06 1007.18 1007.30 1007.30 1007.26 1007.30 1007.30 1007.30 1007.38 1007.58 1007.82 1007.74 1007.78 1007.62 1007.62 1007.50 1006.62 1005.66 1003.82 1004.58 1004.26 1004.34 1004.22 1004.38 1004.42 1004.46 1004.38 1004.46 1004.46 1004.46 1004.42 1004.22 1004.10 1003.98 1003.86 1003.78 1003.62 1003.50
998.82 999.06 999.34 999.58 999.70 999.78 1000.02 1000.26 1000.46 1000.58 1000.74 1000.90 1001.26 1001.54 1001.66 1001.74 1001.86 1002.18 1002.62 1003.02 1003.54 1003.90 1004.10 1004.50 1004.86 1005.22 1005.58 1005.86 1006.02 1006.10 1006.14 1006.26 1006.38 1006.58 1006.70 1006.78 1006.86 1006.90 1006.98 1007.06 1007.18 1007.30 1007.34 1007.22 1007.26 1007.58 1007.90 1007.78 1007.78 1007.82 1007.54 1007.42 1006.34 1006.62 1005.30 1003.78 1004.26 1004.14 1004.34 1004.38 1004.38 1004.30 1004.30 1004.26 1004.38 1004.34 1004.18 1004.06 1004.02 1003.86 1003.70 1003.50 1003.42 1003.30
998.58 999.06 999.46 999.74 999.90 1000.06 1000.34 1000.58 1000.78 1000.94 1001.10 1001.42 1001.74 1001.86 1001.90 1001.94 1002.06 1002.34 1002.82 1003.10 1003.42 1003.82 1004.26 1004.58 1004.98 1005.30 1005.54 1005.70 1005.78 1005.86 1005.90 1005.98 1006.14 1006.34 1006.42 1006.50 1006.58 1006.62 1006.70 1006.78 1006.86 1007.02 1007.10 1007.18 1007.26 1007.42 1007.62 1007.66 1007.54 1007.58 1007.38 1007.14 1006.86 1005.98 1005.98 1005.22 1003.90 1003.98 1004.26 1004.26 1004.14 1004.14 1003.98 1004.10 1004.10 1003.94 1003.82 1003.78 1003.66 1003.50 1003.38 1003.34 1003.18 1003.06
998.50 998.90 999.38 999.78 1000.10 1000.34 1000.58 1000.86 1001.06 1001.26 1001.58 1001.86 1001.94 1002.06 1002.30 1002.46 1002.62 1002.74 1002.98 1003.30 1003.58 1003.90 1004.26 1004.58 1004.82 1004.94 1004.98 1005.10 1005.18 1005.30 1005.50 1005.78 1006.02 1006.18 1006.26 1006.30 1006.34 1006.46 1006.58 1006.66 1006.74 1006.82 1006.90 1007.02 1007.10 1007.22 1007.30 1007.34 1007.22 1007.14 1007.10 1007.06 1006.82 1006.46 1005.62 1004.46 1004.70 1004.26 1003.86 1003.46 1003.86 1003.62 1003.74 1003.78 1003.58 1003.54 1003.50 1003.38 1003.26 1003.14 1003.06 1002.94 1002.86 1002.70
998.22 998.54 999.02 999.54 1000.06 1000.46 1000.78 1001.02 1001.26 1001.46 1001.66 1001.78 1001.86 1002.06 1002.34 1002.62 1002.94 1003.18 1003.46 1003.58 1003.78 1004.02 1004.14 1004.26 1004.34 1004.42 1004.50 1004.62 1004.86 1005.22 1005.50 1005.74 1005.90 1005.94 1005.98 1006.06 1006.18 1006.30 1006.46 1006.58 1006.66 1006.70 1006.78 1006.82 1006.94 1006.98 1007.02 1007.02 1006.94 1006.86 1006.90 1006.74 1006.66 1006.14 1006.06 1004.86 1004.34 1004.38 1004.22 1003.58 1003.02 1003.30 1003.42 1003.26 1003.18 1003.14 1002.94 1002.90 1002.86 1002.78 1002.78 1002.62 1002.42 1002.38
998.46 998.66 999.10 999.58 1000.06 1000.42 1000.66 1000.82 1001.06 1001.34 1001.54 1001.66 1001.82 1002.10 1002.42 1002.82 1003.18 1003.34 1003.50 1003.62 1003.78 1003.94 1003.86 1003.86 1003.90 1004.02 1004.34 1004.74 1004.98 1005.22 1005.38 1005.54 1005.62 1005.78 1005.94 1006.06 1006.10 1006.22 1006.34 1006.50 1006.58 1006.58 1006.62 1006.62 1006.66 1006.66 1006.70 1006.70 1006.62 1006.58 1006.58 1006.46 1006.30 1006.02 1005.66 1005.18 1003.98 1003.94 1004.06 1003.94 1003.30 1002.54 1002.74 1002.86 1002.86 1002.86 1002.70 1002.34 1002.30 1002.38 1002.34 1002.34 1002.18 1002.14
999.22 999.42 999.70 999.98 1000.34 1000.66 1000.82 1000.94 1001.14 1001.38 1001.70 1001.94 1002.02 1002.30 1002.58 1002.86 1003.06 1003.22 1003.42 1003.58 1003.66 1003.58 1003.42 1003.42 1003.82 1004.26 1004.50 1004.66 1004.78 1004.90 1005.10 1005.30 1005.46 1005.62 1005.70 1005.78 1005.90 1006.02 1006.22 1006.46 1006.58 1006.54 1006.38 1006.34 1006.34 1006.30 1006.30 1006.30 1006.26 1006.30 1006.38 1006.10 1005.90 1005.66 1005.26 1005.06 1004.42 1003.66 1003.50 1003.74 1003.66 1003.38 1002.22 1002.42 1002.50 1002.46 1002.22 1001.98 1001.86 1001.94 1001.90 1001.86 1001.82 1001.82
999.54 999.86 1000.22 1000.54 1000.74 1000.90 1001.06 1001.26 1001.42 1001.50 1001.58 1001.94 1002.50 1002.94 1003.02 1002.94 1002.98 1003.10 1003.22 1003.38 1003.34 1003.26 1003.38 1003.78 1004.10 1004.30 1004.18 1004.18 1004.34 1004.70 1005.02 1005.26 1005.30 1005.30 1005.42 1005.58 1005.82 1005.98 1006.26 1006.54 1006.54 1006.42 1006.26 1006.06 1005.98 1005.94 1005.98 1005.94 1005.90 1005.86 1005.86 1005.66 1005.46 1004.94 1004.82 1004.62 1004.26 1003.82 1003.18 1003.14 1003.26 1002.86 1002.82 1002.54 1002.02 1002.02 1002.22 1001.98 1001.62 1001.42 1001.34 1001.46 1001.38 1001.34
999.82 1000.14 1000.50 1000.78 1000.94 1001.06 1001.18 1001.30 1001.26 1001.22 1001.62 1002.22 1002.66 1003.02 1003.02 1003.06 1003.22 1003.26 1003.22 1003.18 1003.26 1003.46 1003.78 1003.98 1003.70 1003.50 1003.74 1004.18 1004.50 1004.82 1005.10 1005.18 1005.18 1005.18 1005.38 1005.54 1005.78 1005.94 1006.14 1006.34 1006.42 1006.34 1006.26 1006.02 1005.90 1005.82 1005.78 1005.70 1005.62 1005.50 1005.34 1005.18 1005.02 1004.82 1004.70 1004.22 1003.74 1003.86 1003.50 1002.86 1003.10 1002.78 1002.50 1002.50 1002.34 1001.98 1001.86 1001.90 1001.58 1001.06 1000.62 1000.70 1000.86 1000.90
999.86 1000.26 1000.66 1000.94 1001.14 1001.18 1001.10 1001.18 1001.18 1001.50 1001.98 1002.58 1002.94 1002.94 1003.06 1003.18 1003.26 1003.34 1003.38 1003.34 1003.50 1003.62 1003.46 1003.02 1003.06 1003.62 1004.14 1004.50 1004.62 1004.94 1005.10 1005.14 1005.18 1005.26 1005.42 1005.58 1005.62 1005.82 1005.94 1006.22 1006.30 1006.34 1006.38 1006.42 1006.26 1006.06 1005.82 1005.50 1005.26 1005.06 1004.90 1004.74 1004.54 1004.54 1004.50 1004.26 1003.46 1003.46 1003.46 1003.22 1003.14 1002.70 1002.22 1002.34 1001.98 1001.74 1001.78 1001.74 1001.46 1000.90 1000.18 999.86 1000.14 1000.46
999.90 1000.34 1000.74 1000.98 1000.98 1000.94 1000.98 1001.26 1001.50 1001.70 1001.98 1002.30 1002.62 1002.86 1003.02 1003.26 1003.30 1003.22 1003.30 1003.58 1003.46 1002.98 1002.78 1003.14 1003.58 1004.02 1004.42 1004.82 1005.06 1005.26 1005.34 1005.46 1005.54 1005.58 1005.62 1005.70 1005.86 1006.06 1006.30 1006.58 1006.70 1006.74 1006.74 1006.66 1006.46 1006.06 1005.86 1005.62 1005.38 1005.06 1004.74 1004.50 1004.18 1003.90 1003.98 1003.78 1003.62 1003.30 1003.30 1003.14 1002.98 1002.62 1002.02 1001.86 1001.74 1001.50 1001.46 1001.38 1001.46 1001.22 1000.42 999.62 999.34 999.66
1000.06 1000.42 1000.74 1000.94 1000.98 1001.02 1001.30 1001.54 1001.70 1001.86 1002.06 1002.34 1002.62 1002.86 1003.10 1003.42 1003.62 1003.78 1003.70 1003.22 1002.86 1003.02 1003.42 1003.98 1004.42 1004.74 1005.14 1005.38 1005.46 1005.50 1005.58 1005.66 1005.78 1005.82 1005.86 1005.98 1006.18 1006.30 1006.38 1006.54 1006.66 1006.70 1006.62 1006.54 1006.46 1006.42 1006.38 1006.22 1005.90 1005.74 1005.46 1005.02 1004.74 1004.14 1003.82 1003.38 1003.26 1003.18 1003.22 1002.86 1002.74 1002.66 1002.38 1002.06 1001.82 1001.70 1001.54 1001.34 1001.18 1001.18 1000.90 999.90 998.90 998.74
1000.14 1000.46 1000.62 1000.82 1000.98 1001.22 1001.54 1001.74 1001.94 1002.14 1002.34 1002.50 1002.70 1002.98 1003.54 1004.02 1003.98 1003.66 1003.38 1003.06 1003.30 1003.82 1004.34 1004.66 1005.06 1005.30 1005.54 1005.66 1005.62 1005.66 1005.78 1005.90 1006.14 1006.10 1006.26 1006.30 1006.30 1006.34 1006.46 1006.54 1006.58 1006.74 1007.06 1007.14 1007.10 1006.94 1006.70 1006.50 1006.18 1005.98 1005.78 1005.34 1004.94 1004.46 1003.86 1003.62 1003.62 1003.98 1004.22 1004.10 1003.66 1003.38 1003.30 1002.78 1002.06 1001.54 1001.34 1001.22 1000.82 1000.66 1000.22 999.74 998.82 998.50
1000.30 1000.54 1000.86 1001.10 1001.42 1001.78 1001.98 1002.30 1002.70 1003.02 1003.14 1003.18 1003.34 1003.66 1003.82 1003.74 1003.66 1003.70 1003.62 1003.74 1004.26 1004.62 1004.94 1005.26 1005.54 1005.66 1005.78 1005.78 1005.82 1006.02 1006.14 1006.34 1006.42 1006.54 1006.54 1006.50 1006.54 1006.74 1006.90 1007.22 1007.38 1007.50 1007.54 1007.42 1007.22 1006.98 1006.66 1006.50 1006.30 1006.14 1006.10 1006.14 1005.78 1005.18 1004.42 1003.82 1004.66 1004.62 1004.42 1004.58 1004.50 1003.90 1003.62 1003.22 1002.50 1001.66 1000.98 1000.70 1000.46 1000.02 999.66 999.14 998.62 998.34
1000.62 1000.98 1001.54 1002.06 1002.50 1002.70 1002.90 1003.14 1003.26 1003.50 1003.70 1003.82 1003.78 1003.70 1003.66 1003.74 1003.90 1004.10 1004.42 1004.86 1005.22 1005.38 1005.50 1005.62 1005.70 1005.70 1005.74 1005.90 1006.06 1006.22 1006.34 1006.46 1006.66 1006.78 1006.90 1006.94 1007.06 1007.26 1007.38 1007.50 1007.62 1007.54 1007.50 1007.42 1007.14 1006.94 1006.82 1006.94 1006.98 1006.94 1006.94 1006.94 1006.70 1006.26 1006.06 1005.30 1003.90 1004.22 1004.90 1004.98 1004.74 1004.14 1003.46 1003.10 1002.34 1001.50 1000.94 1000.34 999.86 999.38 998.98 998.70 998.58 998.58
1001.90 1002.10 1002.38 1002.70 1003.06 1003.26 1003.46 1003.66 1003.94 1004.18 1004.30 1004.22 1004.10 1004.06 1004.18 1004.50 1004.82 1005.14 1005.50 1005.70 1005.78 1005.78 1005.74 1005.74 1005.82 1005.86 1006.02 1006.14 1006.30 1006.46 1006.62 1006.86 1007.06 1007.18 1007.22 1007.26 1007.26 1007.30 1007.46 1007.50 1007.58 1007.58 1007.62 1007.54 1007.42 1007.22 1007.18 1007.18 1007.22 1007.38 1007.42 1007.22 1006.90 1006.54 1006.10 1005.58 1004.46 1003.66 1004.06 1004.22 1004.14 1003.86 1003.46 1003.14 1002.70 1002.06 1001.30 1000.86 1000.46 999.86 999.02 998.62 998.34 998.22
1002.70 1003.06 1003.42 1003.54 1003.66 1003.82 1003.98 1004.18 1004.30 1004.30 1004.34 1004.38 1004.50 1004.82 1005.26 1005.62 1005.86 1005.98 1006.06 1006.06 1005.94 1005.82 1005.90 1006.06 1006.18 1006.34 1006.50 1006.62 1006.74 1006.90 1007.10 1007.10 1007.14 1007.18 1007.26 1007.38 1007.50 1007.62 1007.70 1007.66 1007.78 1007.62 1007.62 1007.54 1007.42 1007.34 1007.34 1007.46 1007.50 1007.38 1007.22 1006.98 1006.70 1006.30 1005.94 1005.50 1004.58 1003.46 1003.46 1003.46 1003.78 1003.70 1003.38 1003.06 1002.62 1002.22 1001.58 1000.98 1000.70 1000.18 999.50 999.02 998.50 998.02
1003.50 1003.78 1004.06 1004.18 1004.34 1004.54 1004.50 1004.50 1004.46 1004.42 1004.54 1004.82 1005.22 1005.66 1006.02 1006.26 1006.30 1006.26 1006.26 1006.10 1005.98 1005.98 1006.14 1006.38 1006.58 1006.74 1006.86 1006.98 1007.06 1007.10 1007.18 1007.18 1007.26 1007.34 1007.42 1007.58 1007.78 1007.90 1007.90 1007.82 1007.74 1007.54 1007.54 1007.54 1007.54 1007.62 1007.58 1007.54 1007.42 1007.26 1007.06 1006.86 1006.58 1006.38 1006.10 1005.54 1004.82 1003.70 1003.02 1002.86 1002.94 1003.14 1003.14 1002.94 1002.66 1002.26 1001.82 1001.38 1000.94 1000.34 999.50 998.78 998.34 997.90
1004.42 1004.62 1004.78 1004.94 1004.98 1004.94 1004.90 1004.86 1004.86 1004.94 1005.14 1005.38 1005.70 1006.02 1006.38 1006.70 1006.82 1006.78 1006.62 1006.50 1006.46 1006.50 1006.66 1006.86 1006.98 1007.14 1007.22 1007.38 1007.54 1007.58 1007.62 1007.58 1007.58 1007.70 1007.74 1007.78 1007.82 1007.86 1007.86 1007.82 1007.74 1007.70 1007.70 1007.70 1007.62 1007.58 1007.42 1007.26 1007.14 1007.02 1006.90 1006.78 1006.58 1006.42 1006.14 1005.54 1005.02 1004.38 1003.70 1003.02 1002.58 1002.38 1002.30 1002.34 1002.22 1001.66 1000.98 1000.34 999.94 999.46 999.10 998.70 998.50 997.90
1005.22 1005.30 1005.42 1005.42 1005.46 1005.46 1005.50 1005.54 1005.62 1005.70 1005.74 1005.90 1006.10 1006.34 1006.62 1006.90 1007.06 1007.10 1007.06 1006.98 1006.98 1007.10 1007.14 1007.30 1007.46 1007.66 1007.82 1007.90 1008.02 1008.06 1007.98 1007.94 1007.90 1007.98 1007.98 1007.90 1007.82 1007.82 1007.82 1007.86 1007.82 1007.74 1007.62 1007.50 1007.30 1007.14 1007.02 1006.94 1006.90 1006.82 1006.86 1006.74 1006.54 1006.34 1005.94 1005.50 1005.02 1004.54 1004.14 1003.46 1002.62 1002.14 1001.58 1001.18 1000.94 1000.70 1000.34 999.90 999.38 998.94 998.62 998.54 998.34 997.98
1005.94 1005.90 1005.86 1005.86 1005.86 1005.90 1005.98 1006.10 1006.22 1006.38 1006.46 1006.46 1006.50 1006.62 1006.86 1007.10 1007.26 1007.30 1007.30 1007.30 1007.34 1007.38 1007.50 1007.66 1007.86 1008.02 1008.10 1008.18 1008.30 1008.34 1008.10 1007.90 1007.94 1008.02 1008.02 1007.98 1007.94 1007.94 1007.98 1007.94 1007.86 1007.66 1007.50 1007.26 1007.10 1006.86 1006.74 1006.74 1006.70 1006.74 1006.70 1006.54 1006.30 1006.06 1005.66 1005.42 1004.98 1004.42 1003.86 1003.42 1002.78 1002.14 1001.62 1001.14 1000.58 1000.06 999.66 999.22 998.86 998.58 998.30 998.10 997.94 997.70
Wind_Speed
13 12 14 13 11 10 9 9 9 9 8 9 8 8 10 9 9 8 7 8 7 4 8 5 4 7 6 6 6 5 4 5 6 5 6 6 5 7 10 8 7 7 8 9 11 12 12 12 12 12 12 12 12 13 12 12 12 13 13 15 16 16 17 15 13 13 14 15 15 16 17 18 18 18
11 12 12 12 11 10 10 11 10 9 10 9 10 9 8 8 10 8 9 8 6 4 4 5 3 3 3 3 4 4 4 7 7 4 4 5 5 8 5 5 6 7 8 9 9 11 12 11 11 12 13 14 13 13 14 13 14 14 16 17 18 17 15 13 14 14 15 15 16 17 19 19 20 20
11 13 14 13 12 11 12 11 10 10 10 10 9 9 8 9 10 10 8 10 5 6 6 5 3 4 4 4 3 3 4 4 5 4 4 4 4 3 4 6 6 7 8 9 9 9 10 11 11 11 13 16 16 15 15 15 14 15 15 16 15 13 13 13 14 14 14 15 16 17 18 19 19 19
11 13 14 14 13 12 11 11 11 10 10 10 10 9 9 9 9 9 10 11 10 5 6 6 5 4 3 2 2 2 2 4 9 4 4 3 4 1 2 5 8 9 8 7 7 7 7 7 9 10 12 14 15 15 14 14 14 14 14 13 11 11 11 11 12 13 14 15 16 17 17 18 18 19
12 13 14 13 13 12 12 11 10 10 11 10 10 9 9 10 9 9 10 11 10 6 4 4 5 3 2 2 3 4 4 3 4 2 3 2 0 2 3 3 5 5 5 5 6 6 5 5 8 10 12 12 13 12 13 13 12 11 11 11 10 10 10 11 12 13 14 14 15 16 16 17 18 18
12 13 14 14 13 12 13 11 12 11 11 11 11 10 11 10 10 10 10 10 9 10 4 6 4 5 4 5 2 4 4 4 1 0 1 1 1 1 0 2 3 5 8 8 6 6 7 9 10 10 10 10 9 9 9 9 8 9 9 9 8 9 10 11 12 13 13 13 14 15 16 17 18 19
13 13 14 15 13 10 11 12 11 11 11 10 11 11 9 10 10 10 11 10 9 8 6 5 6 5 4 5 4 2 2 1 1 1 3 3 2 2 2 4 3 5 7 7 7 9 10 11 11 11 11 11 10 10 10 10 9 9 9 9 9 9 10 10 11 12 12 13 14 15 16 17 18 19
14 15 13 13 13 12 12 11 10 10 10 11 10 10 9 10 11 9 9 10 8 6 7 6 8 5 5 4 3 3 1 0 2 1 2 1 3 3 3 4 4 4 7 8 9 10 10 11 11 11 12 12 12 12 12 12 13 12 11 10 9 9 9 9 10 10 11 12 14 15 16 17 18 19
14 14 14 13 11 12 13 12 11 10 11 10 10 10 10 10 9 8 9 10 10 10 10 8 5 4 4 3 2 1 2 3 2 2 2 2 2 4 3 4 4 7 8 8 9 10 11 11 11 11 12 12 13 13 13 14 13 13 12 10 9 9 9 9 10 10 11 11 12 14 15 16 16 18
13 13 13 12 11 12 14 13 11 11 12 10 10 10 9 8 8 10 10 9 9 9 8 7 5 2 5 2 2 2 2 2 4 6 5 4 4 4 6 3 4 4 5 5 5 7 9 10 11 10 10 10 11 13 15 15 15 13 12 11 10 9 9 9 9 10 11 11 12 13 13 14 15 17
12 12 12 12 12 13 13 13 12 11 11 11 12 11 10 9 9 9 9 7 7 8 7 6 7 7 4 5 5 2 1 0 1 4 6 5 2 2 3 6 4 4 7 6 9 9 10 11 8 8 11 11 11 12 14 16 16 14 12 11 10 9 8 8 9 9 10 11 12 12 12 12 14 15
12 12 12 12 12 13 12 12 10 10 10 8 9 8 9 9 9 9 8 9 10 9 7 7 6 5 5 2 0 2 2 0 2 0 3 7 4 5 3 3 7 6 4 8 7 6 7 7 7 8 9 11 10 11 12 15 16 15 13 11 10 8 7 7 8 8 9 10 11 12 12 12 13 15
11 11 11 11 11 12 14 15 13 12 11 9 9 8 9 9 10 10 9 8 7 7 8 7 5 6 5 5 5 4 3 5 8 2 3 2 1 2 5 5 4 6 6 4 3 4 3 7 9 8 8 8 7 9 13 12 15 15 13 11 8 7 6 6 7 8 9 10 11 11 12 13 14 14
10 11 11 11 15 15 15 15 15 16 16 16 14 10 9 10 8 7 7 8 8 8 9 8 7 6 7 7 6 5 4 3 2 3 2 1 2 4 6 4 1 2 2 5 7 5 1 4 9 9 9 8 5 6 7 8 9 11 12 10 7 6 6 6 6 7 9 10 11 12 13 14 14 15
10 9 9 8 11 13 14 14 17 16 17 17 18 15 16 15 14 12 11 10 9 9 8 7 6 7 8 7 5 5 5 3 6 6 3 1 1 2 3 6 5 1 5 4 5 12 2 2 8 10 8 7 7 7 8 12 14 14 13 11 8 6 6 5 5 6 8 9 10 11 12 13 14 15
10 9 8 7 7 9 11 9 11 14 15 15 15 14 14 14 15 12 11 10 8 8 8 7 8 7 8 5 5 4 5 5 4 4 4 4 4 4 5 4 4 4 3 4 5 11 7 2 6 9 9 7 6 8 11 13 14 13 12 11 9 6 4 4 5 6 8 9 10 9 11 13 14 15
10 9 8 8 7 7 12 11 9 8 7 8 10 9 9 8 8 6 4 3 9 8 8 9 8 9 6 6 7 7 7 5 6 5 5 5 5 6 7 7 5 4 3 4 4 8 9 3 7 8 8 6 6 8 10 13 13 13 13 10 9 6 4 4 5 7 8 9 10 10 10 13 14 15
10 10 10 9 9 7 7 8 9 8 8 8 7 7 7 7 6 6 7 7 6 7 8 9 9 6 7 8 5 5 7 8 7 7 6 5 6 7 7 3 4 3 3 5 1 6 7 3 3 7 7 5 7 8 10 14 13 12 12 10 9 6 4 4 6 8 8 8 10 10 10 12 14 15
11 11 11 12 11 10 10 9 11 10 10 9 8 7 7 7 6 6 6 5 5 5 5 7 6 6 5 6 6 5 5 6 4 5 4 5 4 2 1 4 5 6 6 5 4 6 3 2 4 8 7 6 7 7 11 15 15 13 12 12 9 5 4 5 7 8 8 8 9 10 11 12 13 14
10 10 11 11 11 11 10 12 17 15 12 11 10 9 8 6 5 5 4 5 4 4 4 4 6 6 7 7 6 5 5 5 5 5 4 2 2 1 2 5 1 3 3 5 5 3 4 0 5 9 6 7 8 7 8 11 12 11 10 8 6 5 5 6 8 9 9 9 10 11 12 13 15 15
9 9 10 10 10 10 10 13 17 16 14 10 11 10 9 7 6 5 4 6 6 5 6 8 9 10 11 10 10 9 8 6 6 4 1 6 3 3 4 3 3 3 0 0 5 2 8 2 2 9 6 4 8 6 6 5 5 8 3 1 4 3 5 7 10 11 11 10 11 11 11 13 17 18
8 9 13 12 10 11 10 15 16 16 14 10 10 10 9 8 7 5 5 4 3 5 6 7 8 7 8 8 7 7 7 7 7 6 9 4 6 6 5 5 1 1 2 2 1 1 4 4 6 9 10 5 2 3 1 1 6 8 7 6 4 6 8 11 11 11 10 10 12 12 12 14 17 10
6 6 8 12 10 9 11 17 16 16 13 10 10 10 9 8 8 7 7 6 6 4 4 3 4 3 3 3 3 3 4 6 6 6 5 4 5 5 4 3 1 2 1 0 2 0 3 6 4 7 10 7 3 0 2 3 5 5 5 6 6 9 11 10 10 10 10 12 14 12 14 17 15 9
5 5 5 6 8 9 13 15 15 14 12 8 6 7 8 8 9 6 7 6 6 7 6 6 6 5 4 4 2 2 3 4 5 5 6 6 5 5 4 4 3 3 3 1 3 3 3 2 3 4 2 4 8 3 7 8 3 6 4 5 3 5 6 7 6 9 14 14 14 14 16 16 14 9
7 7 6 3 5 10 13 13 13 12 10 9 7 8 9 9 8 11 9 10 11 8 8 7 6 5 4 4 4 4 5 5 5 5 5 5 5 5 5 5 4 4 3 1 6 3 2 2 5 3 3 3 7 11 6 2 5 2 4 0 3 4 5 5 4 5 7 13 14 16 16 14 15 12
5 5 5 5 5 9 11 12 13 14 12 12 7 8 8 11 14 11 7 7 7 6 6 6 5 5 5 5 5 5 5 5 6 6 6 6 6 5 5 4 4 4 2 1 5 3 4 5 3 5 5 5 8 5 12 9 1 2 2 5 6 5 3 6 4 5 6 5 5 6 9 15 15 14
6 5 5 5 7 9 10 11 13 13 11 6 5 9 11 11 13 10 7 7 6 6 5 5 5 5 5 5 5 5 5 5 5 6 6 6 6 5 4 4 4 4 2 2 3 5 5 6 3 6 7 6 11 10 8 9 5 1 6 2 2 3 6 3 4 5 5 4 5 8 12 12 16 16
6 7 6 7 9 8 9 11 12 13 8 4 8 10 10 10 8 5 6 6 6 6 6 6 6 6 5 5 4 4 4 4 4 4 3 2 2 2 2 3 3 3 4 4 4 5 6 7 6 6 7 8 10 9 12 8 7 8 11 7 4 5 2 2 6 3 3 3 5 5 5 5 5 6
7 9 13 15 13 11 12 14 14 11 9 9 8 11 11 8 5 5 5 5 6 6 6 6 5 5 5 5 4 4 4 3 2 1 0 0 1 1 1 2 3 3 4 5 5 6 7 7 8 7 6 7 8 9 9 13 11 9 6 11 9 1 7 5 1 6 9 7 6 6 5 6 7 5
13 16 17 17 15 14 12 10 7 6 7 9 11 11 9 5 5 5 5 5 6 5 5 5 5 4 5 5 5 4 4 3 1 2 1 1 2 1 1 1 3 4 5 6 6 6 6 7 8 7 7 7 8 10 9 11 13 7 6 8 11 12 5 1 6 6 8 9 7 6 6 5 7 5
9 12 10 9 9 8 10 9 9 9 9 8 6 5 5 6 5 5 5 5 5 4 5 5 5 5 5 5 4 2 3 2 1 3 2 1 1 0 1 1 3 4 5 5 6 7 6 7 7 7 7 7 7 9 9 8 12 12 9 5 7 12 10 9 6 7 8 9 8 7 6 6 6 4
8 8 9 10 7 7 7 7 6 6 6 6 5 3 3 4 4 5 5 4 4 4 5 4 4 4 4 4 4 4 3 1 1 0 0 1 0 1 1 0 2 3 4 5 5 6 6 6 7 6 8 8 9 8 6 8 10 11 13 8 7 9 7 10 12 9 7 9 10 10 8 6 7 6
7 7 7 6 6 5 7 6 6 6 7 5 5 4 4 4 4 3 3 4 4 4 4 5 4 5 6 5 5 4 2 1 1 1 0 1 2 2 1 3 3 4 3 3 2 3 4 5 5 7 8 8 8 9 9 11 9 6 10 12 8 10 9 8 9 11 9 8 10 11 12 7 6 7
7 6 6 4 5 5 6 6 6 7 7 6 5 5 4 4 3 3 3 3 4 4 4 5 7 7 5 3 2 1 0 1 1 2 2 1 1 1 2 2 2 2 3 4 4 5 6 6 6 6 6 7 8 8 8 10 13 9 8 9 9 12 10 8 9 10 8 8 10 13 14 12 6 6
6 6 6 5 5 5 5 5 5 5 6 5 5 5 4 3 4 4 4 3 3 5 6 7 6 5 4 4 4 4 4 4 4 4 4 4 4 4 4 4 3 3 3 3 4 4 4 6 7 8 8 7 7 4 10 12 10 10 8 8 8 10 11 8 8 9 8 7 6 10 14 14 11 5
6 5 6 5 5 5 6 5 5 5 5 5 5 5 5 4 4 4 3 4 7 8 8 7 6 5 4 4 3 4 4 4 3 3 4 4 4 4 5 4 4 4 3 3 4 6 7 7 7 8 9 9 8 10 1 13 15 8 7 8 7 8 9 10 10 9 8 8 7 7 10 14 15 13
6 5 5 6 5 5 5 5 5 4 4 5 5 5 5 5 3 4 6 8 8 7 6 6 5 4 4 3 4 4 5 5 4 4 4 3 4 3 2 2 3 4 5 5 5 6 5 5 5 6 7 8 7 9 8 3 7 11 7 8 10 9 11 13 15 14 12 11 12 11 12 13 16 13
6 5 6 5 5 5 5 5 5 5 5 5 6 6 5 5 5 6 6 8 7 5 5 5 4 3 4 4 4 4 4 3 3 3 3 3 3 3 4 4 4 3 3 4 4 4 5 5 5 6 7 8 9 11 13 7 3 6 9 9 10 13 12 12 13 13 13 10 11 12 12 13 12 10
6 6 5 5 5 4 5 4 5 5 4 4 4 5 6 6 6 6 6 6 5 4 4 4 3 4 5 5 5 4 3 2 2 2 3 3 3 2 2 2 3 3 3 4 4 4 5 5 5 5 5 6 7 9 10 13 16 6 5 10 11 12 12 11 13 13 12 13 12 11 10 8 5 4
6 6 5 6 6 5 6 5 6 5 5 5 6 6 6 6 5 5 4 4 3 3 4 4 4 5 5 4 5 4 4 3 3 3 2 2 2 1 1 2 2 3 3 4 4 4 3 5 4 4 6 6 8 9 10 12 14 13 9 7 12 11 11 11 13 14 14 13 13 14 14 12 13 4
6 6 5 5 5 5 6 5 5 5 6 6 7 7 6 5 4 3 3 3 3 4 5 5 5 5 4 4 4 4 3 2 3 2 1 2 3 4 5 5 3 3 3 4 3 3 3 2 7 13 10 8 8 8 9 9 12 12 9 7 8 16 19 16 13 12 13 14 13 14 14 13 13 12
5 5 5 4 5 4 4 5 5 5 6 6 5 4 4 4 3 5 4 6 5 5 5 5 4 4 3 3 2 3 2 2 2 1 3 3 2 3 5 3 3 4 4 5 4 5 5 5 7 6 6 6 7 7 9 10 12 12 11 9 6 9 15 19 21 21 18 14 13 13 13 12 10 10
6 6 5 5 5 5 5 5 5 5 5 4 4 4 3 3 3 3 3 4 4 5 4 4 4 3 4 4 4 3 3 2 2 2 2 2 2 2 3 4 4 4 5 5 5 6 5 4 4 5 5 5 6 6 10 11 11 12 12 13 11 10 10 14 18 22 25 27 23 19 13 10 8 11
5 5 5 5 5 5 5 5 5 4 4 4 4 4 4 3 4 3 3 4 4 4 4 4 4 4 4 3 3 3 2 2 2 2 2 2 2 2 3 4 5 5 5 5 6 5 5 5 5 5 6 6 6 7 9 10 9 10 11 11 12 13 12 11 9 11 15 18 18 18 17 15 15 17
5 5 5 5 5 5 5 5 5 4 4 4 4 4 4 3 3 3 3 3 3 4 4 3 3 3 3 2 2 1 1 2 2 2 2 2 3 3 4 4 5 6 5 6 7 7 6 6 6 5 6 6 6 8 9 10 12 12 11 11 13 11 11 10 12 13 12 10 12 17 16 15 15 17
Wind_Direction
218 222 219 222 224 222 221 221 214 210 207 208 208 202 206 206 237 242 248 240 236 245 209 224 259 220 213 201 204 193 198 204 199 195 204 208 217 227 231 235 244 249 250 253 262 267 268 269 273 279 283 285 286 287 284 280 281 283 284 288 290 292 295 303 311 311 310 309 306 302 300 299 298 298
216 221 220 221 223 218 217 219 216 212 210 209 211 210 209 198 216 226 243 255 194 243 232 206 233 256 215 168 158 170 197 199 188 192 193 205 212 224 227 240 246 250 257 266 268 266 267 269 275 281 285 288 290 292 291 291 290 290 290 289 291 295 303 308 305 303 302 300 300 300 299 299 299 300
214 217 219 217 222 215 217 217 213 209 206 212 209 209 203 209 215 229 235 257 230 197 232 248 224 200 221 200 179 182 199 175 163 184 204 220 218 205 246 257 263 269 275 275 274 274 279 283 286 289 290 291 293 293 290 289 287 287 286 287 289 292 293 294 296 297 298 300 301 301 301 301 302 303
215 216 218 216 218 214 215 215 213 208 206 206 207 205 206 214 218 221 232 241 253 198 214 221 241 217 214 209 196 243 251 180 172 191 207 192 174 235 273 276 277 278 282 281 280 277 278 281 286 288 290 289 289 287 285 284 283 282 283 284 285 286 290 292 295 297 300 303 304 305 305 305 306 305
217 219 220 218 216 210 212 212 208 208 207 205 209 207 206 214 214 221 230 241 252 246 228 224 225 248 200 274 194 230 244 237 239 199 162 148 172 259 270 278 276 285 297 281 272 268 267 274 281 284 285 287 286 284 283 283 284 284 278 273 274 281 288 293 296 299 302 306 307 308 308 308 309 308
219 219 223 224 217 208 212 207 206 206 207 207 210 209 208 212 212 213 225 235 237 245 219 245 249 247 200 237 205 211 252 263 308 1 325 319 275 247 285 315 292 291 291 290 288 288 291 294 294 292 289 286 285 285 284 280 276 271 264 269 280 290 292 294 295 298 301 305 308 308 310 310 309 307
218 219 221 222 216 211 212 210 207 201 207 207 210 210 206 213 214 211 217 224 232 235 234 219 235 223 227 206 244 234 196 169 141 316 307 289 320 11 349 314 297 294 292 291 294 300 304 301 297 295 298 303 307 309 311 310 305 301 300 304 302 294 290 291 296 302 306 307 306 307 307 307 307 305
215 217 218 220 213 212 214 215 210 207 204 204 207 209 206 212 215 213 212 218 231 225 233 228 213 219 212 254 231 198 113 43 338 255 281 17 359 339 335 315 303 300 301 303 303 302 299 297 298 300 305 311 315 315 315 316 315 312 307 299 295 295 295 298 304 305 305 302 303 304 305 305 305 305
217 218 219 217 210 210 216 217 214 208 206 206 205 210 208 208 210 214 216 217 217 220 224 222 218 203 210 210 220 159 243 310 327 355 0 332 329 319 312 320 308 314 323 318 310 303 301 299 300 303 307 309 309 310 311 310 306 300 296 295 295 296 298 301 303 303 301 300 300 301 303 305 305 304
216 219 220 216 209 210 214 217 213 208 209 205 209 211 209 208 204 211 215 212 211 218 218 192 225 244 209 258 249 210 171 240 294 306 313 337 338 333 327 331 322 323 316 315 311 305 299 297 296 296 297 298 302 305 303 299 294 288 285 288 293 296 298 297 297 298 299 301 302 300 301 303 304 307
218 219 219 216 211 213 215 216 213 209 209 207 211 210 208 203 201 211 210 203 215 219 219 218 209 209 219 195 233 283 126 171 221 250 312 304 320 4 360 322 322 311 305 295 295 293 287 286 290 293 295 298 300 297 294 293 287 283 281 283 282 281 281 281 289 296 299 301 299 299 301 305 309 310
218 218 218 217 215 215 216 214 212 201 206 203 213 207 203 202 203 213 213 208 205 206 214 208 196 194 210 241 120 69 83 250 301 168 204 262 299 313 316 326 318 305 292 298 304 299 304 316 317 315 305 295 291 287 286 282 279 273 270 269 267 257 260 279 289 294 300 301 302 305 307 310 311 310
217 217 216 215 215 212 213 211 208 205 201 199 211 206 199 204 205 205 198 202 201 203 201 211 186 182 197 220 208 228 181 193 224 224 124 231 238 310 320 312 286 269 287 286 287 301 352 333 316 312 303 286 282 279 271 267 264 265 265 257 245 265 283 291 301 308 310 310 309 310 311 311 309 307
215 216 215 215 211 205 203 204 207 206 204 204 206 201 196 197 199 200 202 205 202 197 200 199 181 187 214 216 205 210 214 192 152 148 127 215 318 1 314 308 267 327 25 360 327 296 10 342 301 296 283 283 270 263 259 245 243 251 254 256 269 285 296 303 312 317 313 310 311 314 314 311 308 308
218 217 213 210 203 203 204 205 206 210 211 212 214 209 200 199 195 199 206 207 191 195 197 182 178 199 219 217 185 204 210 178 180 192 150 135 58 23 355 311 306 56 53 22 350 305 318 3 295 288 274 274 275 259 251 252 253 252 256 262 272 284 290 299 307 306 300 304 310 312 310 310 307 303
216 212 209 207 198 201 203 201 209 213 211 207 206 200 197 201 205 203 196 188 190 190 185 185 198 194 216 206 181 194 157 174 124 134 125 147 174 190 212 234 246 237 63 22 324 290 302 326 273 277 271 265 258 256 256 258 257 255 253 259 268 278 278 280 287 278 295 309 307 303 312 310 306 303
213 206 201 201 201 207 195 192 193 185 186 185 174 164 165 168 167 152 141 178 184 177 186 188 194 196 183 187 209 184 177 150 159 155 171 184 195 206 222 229 251 281 76 354 296 282 289 317 276 263 264 261 264 270 264 260 258 255 254 254 265 276 272 269 273 284 299 306 312 314 312 313 307 302
209 202 199 197 202 195 187 188 176 170 167 163 155 159 168 169 154 147 155 147 143 171 183 182 201 193 166 196 184 183 149 152 183 181 202 185 200 210 226 237 255 292 315 254 271 285 290 249 238 263 271 256 273 266 268 267 262 259 258 261 271 273 257 255 273 286 291 299 311 317 315 312 307 305
210 204 201 198 197 188 188 186 176 169 169 165 168 169 178 178 178 175 170 178 172 157 175 185 179 153 136 137 141 154 153 152 162 172 185 180 182 179 292 293 260 278 248 193 151 260 297 307 326 279 288 285 266 266 277 274 274 269 268 270 267 254 225 249 273 282 288 297 311 316 314 312 307 306
207 201 196 197 194 188 189 188 179 175 165 167 169 176 176 172 170 179 179 168 164 161 165 158 152 149 125 121 119 115 110 105 99 90 91 112 138 161 279 267 251 221 285 157 154 257 270 137 311 290 282 278 273 269 267 276 281 277 275 271 265 206 221 257 278 293 300 308 314 313 310 312 312 310
200 197 196 192 190 182 190 184 180 174 163 167 172 174 175 172 165 164 141 126 124 131 128 113 108 111 115 113 112 112 113 122 126 106 135 237 179 187 233 264 201 233 68 179 168 218 290 339 312 300 280 251 273 271 263 288 296 287 260 261 141 194 255 278 298 304 303 306 306 301 305 319 319 314
198 199 191 187 184 184 185 178 180 174 165 169 172 170 166 169 175 172 146 128 117 103 99 101 101 105 112 121 136 147 156 154 148 163 213 204 164 206 205 229 218 294 322 272 156 172 262 339 343 321 306 287 257 227 271 40 30 39 35 18 340 307 302 307 308 307 302 296 295 296 304 318 316 315
189 190 190 187 182 180 169 174 178 175 173 174 175 173 168 176 188 179 150 152 156 149 130 97 93 76 95 115 138 171 184 197 193 199 211 180 184 201 209 210 290 11 19 153 104 51 295 4 340 11 338 329 273 254 109 9 347 4 354 319 311 300 306 313 318 317 311 303 298 297 308 313 313 309
191 188 188 185 173 160 163 171 173 175 173 168 160 156 171 180 190 156 151 154 154 152 152 151 142 145 144 134 126 140 171 196 204 205 201 196 195 205 198 197 185 170 189 203 61 43 285 51 329 40 66 311 308 303 323 315 360 314 294 285 292 319 350 350 338 321 311 310 303 299 302 302 308 309
182 183 188 181 172 159 162 167 166 161 156 150 156 169 182 190 166 154 159 161 160 154 152 141 138 136 131 149 170 190 192 198 199 198 201 191 189 195 196 205 210 218 223 104 68 75 297 357 317 341 288 219 278 308 284 255 287 237 267 70 17 331 333 316 301 296 289 292 295 302 303 305 306 304
191 181 171 166 169 156 159 162 160 161 159 156 153 174 167 155 153 148 135 134 134 135 130 132 142 155 171 188 195 198 197 199 196 191 197 195 196 201 199 201 219 236 239 242 21 33 331 296 295 301 286 283 283 264 301 304 151 257 79 349 308 288 291 293 285 280 280 281 283 283 294 299 300 299
165 137 142 144 155 157 161 169 169 166 152 117 135 138 131 126 127 126 131 132 130 131 142 148 161 174 179 184 190 191 198 201 193 189 192 195 194 206 206 217 211 228 239 240 255 257 255 268 245 258 280 283 291 295 273 287 299 54 312 259 296 270 277 253 272 283 284 284 276 289 302 298 301 299
139 135 139 148 153 145 152 160 162 165 155 135 151 137 129 116 110 107 124 134 143 146 153 156 164 171 175 163 165 168 159 141 153 157 157 156 166 170 211 230 246 244 250 251 250 235 236 250 257 240 249 266 279 287 296 274 268 305 316 304 252 245 221 289 296 283 281 290 298 298 297 291 260 270
145 140 140 145 148 146 154 159 160 162 156 159 140 125 121 119 128 131 141 147 144 153 162 161 162 162 165 155 143 141 138 146 121 107 353 352 282 265 265 270 273 272 260 254 244 237 229 233 246 250 246 245 253 269 270 284 299 301 311 319 316 144 325 283 246 328 316 311 307 307 297 297 300 287
124 132 138 141 145 151 155 148 139 139 142 141 129 125 126 127 143 151 150 153 153 163 157 151 147 132 114 123 148 149 133 128 184 157 203 194 280 202 230 307 294 264 252 248 239 237 234 230 237 238 244 242 244 261 265 285 291 290 301 308 299 303 173 256 313 303 302 304 302 292 287 275 277 287
105 111 115 123 124 119 118 116 114 111 112 113 115 126 139 147 151 147 153 156 154 155 134 112 101 124 145 147 124 124 122 140 220 182 180 133 256 290 280 180 281 286 269 250 236 233 227 232 235 228 236 251 248 243 261 261 279 295 290 272 298 300 304 305 295 305 304 298 296 291 285 277 265 236
104 103 104 104 106 114 108 112 118 122 115 109 105 120 141 129 120 116 115 114 118 100 104 119 140 148 142 111 103 88 84 115 272 253 121 148 229 231 204 123 256 244 263 261 253 245 237 238 239 235 229 242 260 266 259 261 273 289 292 291 286 285 292 303 307 304 293 293 301 291 276 259 264 252
100 102 108 120 119 124 125 127 129 117 103 101 119 137 129 124 128 135 131 130 135 144 140 150 134 92 69 59 67 75 62 6 289 317 126 263 187 255 191 232 249 263 282 283 277 305 305 286 251 240 241 241 239 256 274 286 276 269 285 295 299 288 297 292 286 290 294 292 283 289 291 271 236 239
111 111 114 117 129 131 123 120 113 114 118 120 130 134 137 140 142 156 163 146 130 131 130 92 71 70 75 62 77 89 111 348 29 20 48 343 342 346 312 318 329 350 354 336 326 307 291 279 280 273 261 255 251 244 250 267 280 283 276 290 293 288 288 283 277 275 275 274 288 293 293 287 250 211
103 115 115 121 115 109 105 110 121 128 129 136 136 141 143 151 144 135 115 132 134 101 76 69 70 75 80 71 53 59 42 48 30 23 21 24 21 20 22 17 352 346 330 313 296 294 315 333 334 320 309 304 298 253 221 235 266 276 287 278 275 281 286 285 289 292 289 284 275 278 284 288 285 244
103 112 114 111 109 108 109 117 120 122 127 135 141 142 128 106 79 88 107 97 75 66 67 65 68 67 67 67 60 53 48 48 34 28 21 29 30 13 16 357 334 305 292 297 338 354 351 339 338 329 323 321 316 309 294 227 225 244 278 295 308 310 316 320 316 308 301 295 279 270 277 286 291 294
113 116 116 119 114 109 116 115 109 106 105 112 102 93 100 108 112 87 68 70 72 68 70 74 68 70 67 66 67 57 49 48 39 25 30 17 15 353 323 294 319 356 4 346 342 330 340 329 324 319 314 315 307 301 295 29 340 349 348 326 320 318 321 314 308 302 294 289 284 278 277 278 283 288
106 105 107 100 95 90 87 88 88 88 93 99 105 107 105 97 81 71 62 64 68 74 76 80 86 91 91 78 76 63 54 52 52 33 11 15 29 24 17 5 346 338 329 318 322 316 321 324 329 340 338 325 314 307 308 308 257 283 330 341 313 306 307 297 293 291 293 284 277 277 274 274 277 285
90 94 83 78 73 72 71 79 91 92 81 81 84 94 91 76 66 62 67 72 76 84 96 100 102 96 87 80 77 86 82 61 59 53 48 36 37 33 5 345 322 306 320 315 326 333 355 350 346 340 341 326 310 309 314 308 300 280 280 292 289 289 286 288 288 292 294 298 296 290 282 279 288 272
63 68 76 84 87 84 78 66 64 62 66 59 60 50 56 60 60 63 67 79 92 98 94 87 81 77 73 70 70 67 66 69 65 55 45 33 6 6 336 312 322 330 331 317 323 323 339 319 330 339 329 309 302 305 303 293 288 292 292 280 276 290 307 312 304 303 300 300 303 301 299 302 297 302
78 74 62 67 67 68 79 78 77 73 66 52 50 48 45 49 60 73 101 103 101 86 80 74 71 67 65 61 62 86 86 78 69 50 26 25 2 355 338 336 323 312 311 298 299 302 308 306 322 320 314 304 301 299 294 291 291 296 297 282 280 285 281 281 287 295 297 304 303 298 294 295 298 298
62 74 67 56 68 67 69 70 69 70 66 62 61 61 60 62 72 75 75 73 70 76 75 75 69 70 68 71 68 70 86 78 84 52 36 33 4 340 330 326 313 318 317 312 323 316 312 309 301 296 286 296 300 304 294 291 292 298 300 301 295 300 304 302 300 297 293 289 290 287 286 285 282 280
45 50 53 52 52 53 52 69 66 67 75 78 78 76 76 66 51 50 46 63 59 61 66 64 63 57 56 50 44 41 53 41 54 50 43 20 357 333 328 322 317 315 310 298 292 288 289 292 299 300 300 300 294 287 285 289 289 292 299 304 303 303 290 286 283 283 283 280 277 275 272 276 301 290
43 55 55 52 56 57 54 54 66 58 60 77 85 83 81 79 75 61 53 61 63 62 63 62 55 58 50 51 52 33 39 37 39 24 3 354 345 335 319 315 310 300 293 289 293 296 300 304 300 304 304 292 285 280 276 284 283 287 290 295 299 303 301 304 284 283 293 293 291 287 282 273 263 266
34 39 45 50 55 59 59 59 59 51 48 60 73 85 90 93 98 90 88 80 72 72 70 73 69 65 64 52 80 99 357 18 14 354 336 328 329 321 316 300 297 296 296 302 308 306 313 311 305 297 281 279 278 278 279 280 285 292 292 292 293 293 298 305 309 309 303 292 282 280 279 271 271 276